Weather History for KABI - November, 2011

Change the Weather History Date:

Tuesday, November 1, 2011

  Actual Average Record
Temperature  
Mean Temperature 68 °F 61 °F  
Max Temperature 79 °F 72 °F 91 °F (1945)
Min Temperature 57 °F 49 °F 31 °F (1991)
Degree Days  
Heating Degree Days 0 6  
Month to date heating degree days 0 6  
Since 1 July heating degree days 76 110  
Cooling Degree Days 3 2  
Month to date cooling degree days 3 2  
Year to date cooling degree days 3490 2391  
Growing Degree Days 18 (Base 50)    
Moisture  
Dew Point 51 °F    
Average Humidity 58    
Maximum Humidity 77    
Minimum Humidity 39    
Precipitation  
Precipitation 0.00 in 0.07 in 0.82 in (1998)
Month to date precipitation 0.00 0.07  
Year to date precipitation 14.72 22.25  
Sea Level Pressure  
Sea Level Pressure 29.95 in    
Wind  
Wind Speed 16 mph (South)    
Max Wind Speed 25 mph    
Max Gust Speed 32 mph    
Visibility 10 miles    
Events      
T = Trace of Precipitation, MM = Missing Value Source: NWS Daily Summary

Daily Weather History Graph

Daily Weather History Graph

Search for Another Location

Airport or City:

Trip Planner

Search our weather history database for the weather conditions in past years. The results will help you decide how hot, cold, wet, or windy it might be!

Date:

Astronomy

Nov. 01, 2011 Rise Set
Actual Time 7:55 AM CDT 6:48 PM CDT
Civil Twilight 7:30 AM CDT 7:13 PM CDT
Nautical Twilight 7:01 AM CDT 7:42 PM CDT
Astronomical Twilight 6:32 AM CDT 8:11 PM CDT
Moon 1:39 PM CDT (11/1) No Moon Set
Length of Visible Light 11h 43m
Length of Day
10h 52m
Waxing Crescent, 40% of the Moon is Illuminated
Nov 1
Waxing Crescent
Nov 2
First Quarter
Nov 10
Full
Nov 18
Last Quarter
Nov 25
New

Hourly Weather History & Observations

Time (CDT) Temp. Dew Point Humidity Pressure Visibility Wind Dir Wind Speed Gust Speed Precip Events Conditions
12:52 AM 63.0 °F 48.9 °F 60% 30.06 in 10.0 mi South 15.0 mph 20.7 mph N/A   Clear
1:52 AM 63.0 °F 51.1 °F 65% 30.00 in 10.0 mi SSW 12.7 mph - N/A   Clear
2:52 AM 62.1 °F 51.1 °F 67% 30.00 in 10.0 mi South 9.2 mph 18.4 mph N/A   Clear
3:52 AM 63.0 °F 51.1 °F 65% 29.98 in 10.0 mi South 15.0 mph 24.2 mph N/A   Clear
4:52 AM 61.0 °F 50.0 °F 67% 29.98 in 10.0 mi South 16.1 mph 21.9 mph N/A   Clear
5:52 AM 59.0 °F 48.9 °F 69% 29.99 in 10.0 mi South 11.5 mph - N/A   Clear
6:52 AM 57.9 °F 48.9 °F 72% 29.99 in 10.0 mi South 13.8 mph 21.9 mph N/A   Clear
7:52 AM 57.0 °F 50.0 °F 77% 30.01 in 10.0 mi South 16.1 mph 23.0 mph N/A   Clear
8:52 AM 59.0 °F 51.1 °F 75% 30.02 in 10.0 mi South 15.0 mph 24.2 mph N/A   Clear
9:52 AM 61.0 °F 52.0 °F 72% 30.03 in 10.0 mi South 18.4 mph 27.6 mph N/A   Clear
10:52 AM 64.9 °F 53.1 °F 65% 30.02 in 10.0 mi South 21.9 mph 28.8 mph N/A   Clear
11:52 AM 68.0 °F 54.0 °F 61% 30.02 in 10.0 mi SSW 15.0 mph 28.8 mph N/A   Clear
12:52 PM 73.0 °F 55.0 °F 53% 29.98 in 10.0 mi SSW 19.6 mph 31.1 mph N/A   Clear
1:52 PM 75.0 °F 54.0 °F 48% 29.94 in 10.0 mi SSW 18.4 mph 27.6 mph N/A   Clear
2:52 PM 78.1 °F 53.1 °F 42% 29.91 in 10.0 mi South 20.7 mph 28.8 mph N/A   Clear
3:52 PM 79.0 °F 52.0 °F 39% 29.89 in 10.0 mi SSW 17.3 mph 25.3 mph N/A   Clear
4:52 PM 79.0 °F 52.0 °F 39% 29.88 in 10.0 mi South 18.4 mph 24.2 mph N/A   Clear
5:52 PM 78.1 °F 51.1 °F 39% 29.87 in 10.0 mi South 12.7 mph - N/A   Clear
6:52 PM 75.0 °F 50.0 °F 41% 29.87 in 10.0 mi South 10.4 mph - N/A   Clear
7:52 PM 72.0 °F 50.0 °F 46% 29.88 in 10.0 mi SSE 12.7 mph - N/A   Clear
8:52 PM 69.1 °F 48.9 °F 49% 29.89 in 10.0 mi SSE 11.5 mph - N/A   Clear
9:52 PM 69.1 °F 50.0 °F 51% 29.90 in 10.0 mi SSE 15.0 mph - N/A   Clear
10:52 PM 68.0 °F 50.0 °F 52% 29.89 in 10.0 mi South 17.3 mph 23.0 mph N/A   Clear
11:52 PM 66.9 °F 51.1 °F 57% 29.88 in 10.0 mi South 20.7 mph 27.6 mph N/A   Clear